This is the latest recevied weather packets stored in our database for station/object 9M2SAR-10. If no packets are shown the sender has not sent any weather packets the latest 10 day(s).
| Time | Temp. | Humidity | Pressure | Rain* | Wind** | Luminosity | Snow |
|---|---|---|---|---|---|---|---|
| 1777696284 | 33.89° C | 100% | 1009.9 hPa | - | - | - | - |
| 1777695384 | 33.89° C | 100% | 1010.1 hPa | - | - | - | - |
| 1777694483 | 32.22° C | 100% | 1010.3 hPa | - | - | - | - |
| 1777693583 | 32.78° C | 100% | 1010.4 hPa | - | - | - | - |
| 1777692683 | 31.67° C | 100% | 1010.5 hPa | - | - | - | - |
| 1777691783 | 31.67° C | 100% | 1010.7 hPa | - | - | - | - |
| 1777689083 | 30.56° C | 100% | 1010.7 hPa | - | - | - | - |
| 1777688183 | 29.44° C | 100% | 1010.7 hPa | - | - | - | - |
| 1777687283 | 28.89° C | 100% | 1010.7 hPa | - | - | - | - |
| 1777686383 | 29.44° C | 100% | 1010.7 hPa | - | - | - | - |
| 1777685483 | 28.89° C | 100% | 1010.7 hPa | - | - | - | - |
| 1777684583 | 29.44° C | 100% | 1010.4 hPa | - | - | - | - |
| 1777683683 | 28.33° C | 100% | 1010.5 hPa | - | - | - | - |
| 1777682783 | 27.22° C | 100% | 1010.3 hPa | - | - | - | - |
| 1777681883 | 27.22° C | 100% | 1010.1 hPa | - | - | - | - |
| 1777680983 | 26.67° C | 100% | 1009.9 hPa | - | - | - | - |
| 1777680082 | 26.67° C | 100% | 1009.5 hPa | - | - | - | - |
| 1777679182 | 26.11° C | 100% | 1009.1 hPa | - | - | - | - |
| 1777678282 | 26.67° C | 100% | 1009 hPa | - | - | - | - |
| 1777677382 | 26.67° C | 100% | 1008.8 hPa | - | - | - | - |
| 1777676482 | 26.67° C | 100% | 1008.5 hPa | - | - | - | - |
| 1777675582 | 26.11° C | 100% | 1008.5 hPa | - | - | - | - |
| 1777674682 | 26.11° C | 100% | 1008.5 hPa | - | - | - | - |
| 1777673782 | 26.11° C | 100% | 1008.2 hPa | - | - | - | - |
| 1777672882 | 26.11° C | 100% | 1008.3 hPa | - | - | - | - |
* Rain since midnight (hover to see other rain measurements)
** Current wind speed in m/s (hover to see current wind gust speed)